Huntington, WV

1:33 PM EDT on May 28, 2017 (GMT -0400)
Tri-State / Ferguson

Weather History for KHTS - September, 2013

Change the Weather History Date:

Tuesday, September 24, 2013

  Actual Average Record
Temperature  
Mean Temperature 61 °F 64 °F  
Max Temperature 76 °F 76 °F 94 °F (1941)
Min Temperature 46 °F 53 °F 31 °F (1983)
Degree Days  
Heating Degree Days 4 3  
Month to date heating degree days 33 29  
Since 1 July heating degree days 37 31  
Cooling Degree Days 0 3  
Month to date cooling degree days 126 121  
Year to date cooling degree days 1158 1098  
Growing Degree Days 10 (Base 50)    
Moisture  
Dew Point 51 °F    
Average Humidity 72    
Maximum Humidity 93    
Minimum Humidity 50    
Precipitation  
Precipitation 0.00 in 0.09 in 1.39 in (1986)
Month to date precipitation 1.70 2.26  
Year to date precipitation 34.12 32.51  
Snow  
Snow 0.00 in - - ()
Month to date snowfall 0.0  
Since 1 September snowfall 0.0  
Snow Depth 0.00 in    
Sea Level Pressure  
Sea Level Pressure 30.03 in    
Wind  
Wind Speed 3 mph (ENE)    
Max Wind Speed 7 mph    
Max Gust Speed 10 mph    
Visibility 8 miles    
Events      
T = Trace of Precipitation, MM = Missing Value Source: NWS Daily Summary

Daily Weather History Graph

Daily Weather History Graph

Search for Another Location

Airport or City:

Trip Planner

Search our weather history database for the weather conditions in past years. The results will help you decide how hot, cold, wet, or windy it might be!

Date:

Astronomy

Sep. 24, 2013 Rise Set
Actual Time 7:19 AM EDT 7:23 PM EDT
Civil Twilight 6:53 AM EDT 7:50 PM EDT
Nautical Twilight 6:22 AM EDT 8:20 PM EDT
Astronomical Twilight 5:51 AM EDT 8:51 PM EDT
Moon 10:44 PM EDT (9/24) 12:29 PM EDT (9/24)
Length of Visible Light 12h 56m
Length of Day
12h 03m
Waning Gibbous, 73% of the Moon is Illuminated
Sep 24
Waning Gibbous
Sep 26
Last Quarter
Oct 4
New
Oct 11
First Quarter
Oct 18
Full

Hourly Weather History & Observations

Time (EDT) Temp. Dew Point Humidity Pressure Visibility Wind Dir Wind Speed Gust Speed Precip Events Conditions
12:51 AM 51.1 °F 46.9 °F 86% 30.07 in 10.0 mi ENE 5.8 mph - N/A   Clear
1:51 AM 50.0 °F 46.0 °F 86% 30.08 in 10.0 mi Calm Calm - N/A   Clear
2:51 AM 48.9 °F 46.0 °F 90% 30.07 in 10.0 mi NE 4.6 mph - N/A   Clear
3:51 AM 46.9 °F 45.0 °F 93% 30.06 in 9.0 mi NE 4.6 mph - N/A   Clear
4:51 AM 48.0 °F 45.0 °F 89% 30.07 in 10.0 mi Calm Calm - N/A   Clear
5:51 AM 46.9 °F 45.0 °F 93% 30.07 in 9.0 mi Calm Calm - N/A   Clear
6:51 AM 46.0 °F 44.1 °F 93% 30.08 in 6.0 mi Calm Calm - N/A   Clear
7:40 AM 46.4 °F 44.6 °F 93% 30.09 in 2.5 mi Calm Calm - N/A   Scattered Clouds
7:44 AM 46.4 °F 44.6 °F 93% 30.09 in 1.2 mi Calm Calm - N/A   Mostly Cloudy
7:47 AM 46.4 °F 44.6 °F 93% 30.09 in 0.8 mi Calm Calm - N/A   Mist
7:51 AM 46.0 °F 45.0 °F 96% 30.09 in 0.8 mi Calm Calm - N/A   Mist
8:10 AM 46.4 °F 46.4 °F 100% 30.09 in 2.5 mi Calm Calm - N/A   Scattered Clouds
8:18 AM 48.2 °F 46.4 °F 93% 30.09 in 2.5 mi Calm Calm - N/A   Partly Cloudy
8:49 AM 50.0 °F 46.4 °F 87% 30.09 in 4.0 mi East 3.5 mph - N/A   Clear
8:51 AM 50.0 °F 46.9 °F 89% 30.09 in 4.0 mi ENE 3.5 mph - N/A   Clear
9:51 AM 54.0 °F 48.9 °F 83% 30.09 in 10.0 mi Calm Calm - N/A   Clear
10:51 AM 59.0 °F 50.0 °F 72% 30.08 in 10.0 mi Variable 3.5 mph - N/A   Clear
11:51 AM 64.9 °F 52.0 °F 63% 30.07 in 10.0 mi NNE 5.8 mph - N/A   Clear
12:51 PM 66.9 °F 52.0 °F 59% 30.04 in 10.0 mi East 4.6 mph - N/A   Clear
1:51 PM 70.0 °F 54.0 °F 57% 30.01 in 10.0 mi East 5.8 mph - N/A   Clear
2:51 PM 72.0 °F 54.0 °F 53% 29.99 in 10.0 mi Calm Calm - N/A   Clear
3:51 PM 75.0 °F 55.9 °F 51% 29.96 in 10.0 mi Calm Calm - N/A   Clear
4:51 PM 75.0 °F 57.0 °F 53% 29.95 in 10.0 mi Variable 3.5 mph - N/A   Clear
5:51 PM 73.0 °F 57.0 °F 57% 29.94 in 10.0 mi Calm Calm - N/A   Clear
6:51 PM 69.1 °F 57.9 °F 68% 29.94 in 10.0 mi NE 3.5 mph - N/A   Clear
7:51 PM 66.0 °F 57.9 °F 75% 29.94 in 10.0 mi NE 4.6 mph - N/A   Clear
8:51 PM 64.9 °F 57.0 °F 75% 29.94 in 10.0 mi ENE 5.8 mph - N/A   Clear
9:51 PM 63.0 °F 55.9 °F 78% 29.95 in 10.0 mi East 4.6 mph - N/A   Clear
10:51 PM 61.0 °F 55.9 °F 83% 29.95 in 10.0 mi ENE 4.6 mph - N/A   Clear
11:51 PM 60.1 °F 55.0 °F 83% 29.93 in 10.0 mi East 4.6 mph - N/A   Clear